GONETS-M 25 (54152 NORAD) Tracking and Keplerian Element Data

This shows tracking and keplerian element data for the satellite.

Feedback or suggestion? Click here.




ElementValue
Catalog54152
NameGONETS-M 25
Epoch Orbit1031
Epoch Day13.77309566
Epoch Year2023
RAAN45.2173
Inclination82.5051
Eccentricity0.0021056
Argument of Perigee79.4373
Mean Anonmoly280.908
Mean Motion12.42912042
Decay Rate1E-07
L11 54152U 22139C 23013.77309566 .00000010 00000+0 00000+0 0 9995
L22 54152 82.5051 45.2173 0021056 79.4373 280.9080 12.42912042 10318



Live tracking and technical data element details for GONETS-M 25 (NORAD 54152). GONETS-M 25 can be tracked NOW for your location showing map with azimuth and elevation plus other details from your city location.







IsCatalogInMostPopularTable: catalog: 54152, numindb: 30
Update: records affected: 1



GetName: 54152 GONETS-M 25

Hit Count: updated at: Fri, 27 Jan 2023 21:49:16 GMT